| time (UTC) | temp F | wind direction | speed knots | gust knots | rain 1hr in | rain 24hr in | rain mn in | humidity % | barometer mb |
| 20260503021829 | 39 | 140 | 0.0 | 0.0 | 0.00 | 0.01 | 0.01 | 80 | 1021.0 |
| 20260503021325 | 40 | 140 | 0.0 | 0.0 | 0.00 | 0.01 | 0.01 | 80 | 1021.1 |
| 20260503020823 | 40 | 139 | 0.0 | 0.0 | 0.00 | 0.01 | 0.01 | 79 | 1021.0 |
| 20260503020321 | 41 | 141 | 0.0 | 0.0 | 0.00 | 0.01 | 0.01 | 78 | 1021.0 |
| 20260503015817 | 41 | 141 | 0.0 | 0.0 | 0.00 | 0.01 | 0.01 | 77 | 1021.0 |
| 20260503015314 | 41 | 141 | 0.0 | 0.0 | 0.00 | 0.01 | 0.01 | 76 | 1020.8 |
| 20260503014809 | 42 | 140 | 0.0 | 0.0 | 0.00 | 0.01 | 0.01 | 75 | 1020.9 |
| 20260503014307 | 42 | 139 | 0.0 | 0.0 | 0.00 | 0.01 | 0.01 | 75 | 1020.8 |
| 20260503013804 | 43 | 140 | 0.0 | 0.0 | 0.00 | 0.01 | 0.01 | 74 | 1020.7 |
| 20260503013302 | 43 | 140 | 0.0 | 0.0 | 0.00 | 0.01 | 0.01 | 74 | 1021.0 |
| 20260503012759 | 43 | 140 | 0.0 | 0.0 | 0.00 | 0.01 | 0.01 | 73 | 1020.8 |
| 20260503012256 | 43 | 138 | 0.0 | 0.0 | 0.00 | 0.01 | 0.01 | 72 | 1020.7 |
| 20260503011753 | 43 | 139 | 0.0 | 0.0 | 0.00 | 0.01 | 0.01 | 73 | 1020.6 |
| 20260503011250 | 43 | 141 | 0.0 | 0.0 | 0.00 | 0.01 | 0.01 | 73 | 1020.7 |
| 20260503010746 | 43 | 141 | 0.0 | 0.0 | 0.00 | 0.01 | 0.01 | 72 | 1020.7 |
| 20260503010243 | 44 | 141 | 0.0 | 0.0 | 0.00 | 0.01 | 0.01 | 71 | 1020.6 |
| 20260503005740 | 44 | 139 | 0.0 | 0.0 | 0.00 | 0.01 | 0.01 | 70 | 1020.4 |
| 20260503005238 | 44 | 140 | 0.0 | 0.0 | 0.00 | 0.01 | 0.01 | 70 | 1020.6 |
| 20260503004733 | 44 | 140 | 0.0 | 0.0 | 0.00 | 0.01 | 0.01 | 70 | 1020.7 |
| 20260503004232 | 44 | 140 | 0.0 | 0.0 | 0.00 | 0.01 | 0.01 | 68 | 1020.5 |
| 20260503003729 | 45 | 139 | 0.0 | 0.0 | 0.00 | 0.01 | 0.01 | 67 | 1020.4 |
| 20260503003226 | 45 | 140 | 0.0 | 0.0 | 0.00 | 0.01 | 0.01 | 66 | 1020.5 |
| 20260503002722 | 45 | 136 | 0.0 | 0.0 | 0.00 | 0.01 | 0.01 | 64 | 1020.6 |
| 20260503002219 | 45 | 141 | 0.0 | 0.0 | 0.00 | 0.01 | 0.01 | 64 | 1020.5 |
| 20260503001715 | 45 | 140 | 0.0 | 0.0 | 0.00 | 0.01 | 0.01 | 62 | 1020.5 |
| 20260503001212 | 45 | 136 | 0.0 | 0.0 | 0.00 | 0.01 | 0.01 | 60 | 1020.4 |
| 20260503000710 | 45 | 136 | 0.0 | 0.0 | 0.00 | 0.01 | 0.01 | 60 | 1020.4 |
| 20260503000207 | 46 | 135 | 0.0 | 0.0 | 0.00 | 0.01 | 0.01 | 59 | 1020.2 |
| 20260502235704 | 46 | 148 | 0.0 | 0.0 | 0.00 | 0.01 | 0.01 | 59 | 1020.4 |
| 20260502235202 | 46 | 102 | 0.0 | 0.9 | 0.00 | 0.01 | 0.01 | 58 | 1020.2 |
| 20260502234658 | 46 | 150 | 0.0 | 0.0 | 0.00 | 0.01 | 0.01 | 57 | 1020.4 |
| 20260502234155 | 46 | 137 | 1.7 | 2.6 | 0.00 | 0.01 | 0.01 | 57 | 1020.2 |
| 20260502233651 | 46 | 133 | 0.0 | 0.0 | 0.00 | 0.01 | 0.01 | 58 | 1020.2 |
| 20260502233148 | 46 | 152 | 0.0 | 0.0 | 0.00 | 0.01 | 0.01 | 57 | 1020.3 |
| 20260502232644 | 46 | 139 | 0.0 | 0.0 | 0.00 | 0.01 | 0.01 | 60 | 1020.2 |
| 20260502232141 | 46 | 130 | 0.9 | 0.9 | 0.00 | 0.01 | 0.01 | 57 | 1019.9 |
| 20260502231638 | 46 | 173 | 0.0 | 0.0 | 0.00 | 0.01 | 0.01 | 54 | 1020.2 |
| 20260502231136 | 46 | 199 | 0.9 | 1.7 | 0.00 | 0.01 | 0.01 | 58 | 1020.1 |
| 20260502230634 | 46 | 137 | 0.0 | 0.0 | 0.00 | 0.01 | 0.01 | 55 | 1020.1 |
| 20260502230132 | 46 | 359 | 3.5 | 4.3 | 0.00 | 0.01 | 0.01 | 55 | 1020.2 |
| 20260502225627 | 46 | 166 | 1.7 | 2.6 | 0.00 | 0.01 | 0.01 | 54 | 1020.0 |
| 20260502225125 | 46 | 116 | 0.9 | 1.7 | 0.00 | 0.01 | 0.01 | 53 | 1020.2 |
| 20260502224621 | 46 | 5 | 2.6 | 2.6 | 0.00 | 0.01 | 0.01 | 52 | 1020.1 |
| 20260502224118 | 47 | 144 | 0.0 | 0.0 | 0.00 | 0.01 | 0.01 | 54 | 1020.1 |
| 20260502223615 | 47 | 131 | 0.9 | 0.9 | 0.00 | 0.01 | 0.01 | 53 | 1020.0 |
| 20260502223114 | 47 | 163 | 1.7 | 2.6 | 0.00 | 0.01 | 0.01 | 53 | 1020.0 |
| 20260502222611 | 47 | 119 | 1.7 | 2.6 | 0.00 | 0.01 | 0.01 | 53 | 1019.8 |
| 20260502222107 | 47 | 165 | 0.9 | 0.9 | 0.00 | 0.01 | 0.01 | 52 | 1019.9 |
| 20260502221603 | 47 | 153 | 0.0 | 0.0 | 0.00 | 0.01 | 0.01 | 52 | 1019.9 |
| 20260502221100 | 48 | 261 | 2.6 | 2.6 | 0.00 | 0.01 | 0.01 | 53 | 1019.9 |
| 20260502220556 | 48 | 340 | 1.7 | 2.6 | 0.00 | 0.01 | 0.01 | 54 | 1020.0 |
| 20260502220053 | 48 | 170 | 1.7 | 1.7 | 0.00 | 0.01 | 0.01 | 55 | 1019.7 |
| 20260502215550 | 48 | 133 | 0.0 | 0.0 | 0.00 | 0.01 | 0.01 | 58 | 1019.9 |
| 20260502215047 | 48 | 102 | 1.7 | 1.7 | 0.00 | 0.01 | 0.01 | 57 | 1019.8 |
| 20260502214544 | 47 | 135 | 0.0 | 0.0 | 0.00 | 0.01 | 0.01 | 59 | 1019.7 |
| 20260502214041 | 47 | 122 | 0.9 | 1.7 | 0.00 | 0.01 | 0.01 | 57 | 1019.8 |
| 20260502213538 | 48 | 226 | 2.6 | 2.6 | 0.00 | 0.01 | 0.01 | 55 | 1019.7 |
| 20260502213036 | 48 | 135 | 0.0 | 0.0 | 0.00 | 0.01 | 0.01 | 50 | 1019.7 |
| 20260502212534 | 48 | 328 | 3.5 | 4.3 | 0.00 | 0.01 | 0.01 | 51 | 1019.6 |
| 20260502212032 | 48 | 159 | 0.9 | 0.9 | 0.00 | 0.01 | 0.01 | 47 | 1019.5 |
| 20260502211527 | 48 | 262 | 0.9 | 1.7 | 0.00 | 0.01 | 0.01 | 51 | 1019.5 |
| 20260502211024 | 48 | 148 | 1.7 | 1.7 | 0.00 | 0.01 | 0.01 | 52 | 1019.6 |
| 20260502210521 | 48 | 83 | 2.6 | 4.3 | 0.00 | 0.01 | 0.01 | 51 | 1019.6 |
| 20260502210018 | 48 | 222 | 1.7 | 1.7 | 0.00 | 0.01 | 0.01 | 54 | 1019.5 |
| 20260502205515 | 48 | 127 | 1.7 | 1.7 | 0.00 | 0.01 | 0.01 | 53 | 1019.6 |
| 20260502205012 | 48 | 163 | 1.7 | 1.7 | 0.00 | 0.01 | 0.01 | 50 | 1019.8 |
| 20260502204509 | 48 | 69 | 0.9 | 2.6 | 0.00 | 0.01 | 0.01 | 50 | 1019.6 |
| 20260502204007 | 48 | 148 | 0.9 | 0.9 | 0.00 | 0.01 | 0.01 | 52 | 1019.6 |
| 20260502203503 | 48 | 167 | 0.9 | 0.9 | 0.00 | 0.01 | 0.01 | 53 | 1019.6 |
| 20260502203000 | 49 | 272 | 1.7 | 1.7 | 0.00 | 0.01 | 0.01 | 54 | 1019.9 |
| 20260502202456 | 49 | 143 | 0.0 | 0.0 | 0.00 | 0.01 | 0.01 | 51 | 1019.5 |
| 20260502201955 | 48 | 227 | 1.7 | 2.6 | 0.00 | 0.01 | 0.01 | 53 | 1019.7 |
| 20260502201450 | 48 | 325 | 2.6 | 4.3 | 0.00 | 0.01 | 0.01 | 52 | 1019.5 |
| 20260502200947 | 49 | 318 | 2.6 | 4.3 | 0.00 | 0.01 | 0.01 | 51 | 1019.6 |
| 20260502200443 | 48 | 176 | 0.9 | 1.7 | 0.00 | 0.01 | 0.01 | 54 | 1019.7 |
| 20260502195941 | 49 | 303 | 0.9 | 1.7 | 0.00 | 0.01 | 0.01 | 55 | 1019.6 |
| 20260502195438 | 50 | 135 | 0.0 | 0.0 | 0.00 | 0.01 | 0.01 | 54 | 1019.7 |
| 20260502194934 | 48 | 138 | 0.0 | 0.9 | 0.00 | 0.01 | 0.01 | 51 | 1019.8 |
| 20260502194431 | 47 | 196 | 2.6 | 2.6 | 0.00 | 0.01 | 0.01 | 57 | 1019.8 |
| 20260502193926 | 48 | 112 | 1.7 | 2.6 | 0.00 | 0.01 | 0.01 | 55 | 1019.6 |
| 20260502193424 | 48 | 206 | 1.7 | 2.6 | 0.00 | 0.01 | 0.01 | 56 | 1019.6 |
| 20260502192919 | 50 | 27 | 1.7 | 4.3 | 0.00 | 0.01 | 0.01 | 53 | 1019.9 |
| 20260502192417 | 49 | 147 | 0.0 | 0.9 | 0.00 | 0.01 | 0.01 | 54 | 1019.8 |
| 20260502191914 | 51 | 152 | 0.9 | 1.7 | 0.00 | 0.01 | 0.01 | 54 | 1019.8 |
| 20260502191412 | 51 | 180 | 1.7 | 1.7 | 0.00 | 0.01 | 0.01 | 54 | 1020.2 |
| 20260502190909 | 50 | 325 | 2.6 | 4.3 | 0.00 | 0.01 | 0.01 | 52 | 1020.0 |
| 20260502190406 | 50 | 142 | 0.9 | 1.7 | 0.00 | 0.01 | 0.01 | 52 | 1019.8 |
| 20260502185902 | 50 | 171 | 0.9 | 0.9 | 0.00 | 0.01 | 0.01 | 54 | 1020.2 |
| 20260502185357 | 51 | 167 | 0.0 | 0.0 | 0.00 | 0.01 | 0.01 | 52 | 1020.0 |
| 20260502184855 | 48 | 351 | 3.5 | 4.3 | 0.00 | 0.01 | 0.01 | 58 | 1020.2 |
| 20260502184350 | 48 | 120 | 0.9 | 2.6 | 0.00 | 0.01 | 0.01 | 55 | 1020.2 |
| 20260502183847 | 49 | 273 | 2.6 | 4.3 | 0.00 | 0.01 | 0.01 | 57 | 1020.3 |
| 20260502183343 | 49 | 138 | 0.0 | 0.0 | 0.00 | 0.01 | 0.01 | 53 | 1020.5 |
| 20260502182838 | 49 | 292 | 3.5 | 4.3 | 0.00 | 0.01 | 0.01 | 54 | 1020.4 |
| 20260502182334 | 48 | 170 | 0.9 | 0.9 | 0.00 | 0.01 | 0.01 | 59 | 1020.3 |
| 20260502181831 | 49 | 157 | 3.5 | 4.3 | 0.00 | 0.01 | 0.01 | 53 | 1020.5 |
| 20260502181330 | 49 | 171 | 0.9 | 1.7 | 0.00 | 0.01 | 0.01 | 56 | 1020.2 |
| 20260502180827 | 50 | 108 | 2.6 | 4.3 | 0.00 | 0.01 | 0.01 | 53 | 1020.1 |
| 20260502180324 | 49 | 137 | 0.0 | 0.0 | 0.00 | 0.01 | 0.01 | 57 | 1020.5 |
| 20260502170243 | 49 | 334 | 2.6 | 2.6 | 0.00 | 0.01 | 0.01 | 51 | 1020.7 |
| 20260502164231 | 47 | 356 | 2.6 | 5.2 | 0.00 | 0.01 | 0.01 | 57 | 1020.8 |
| 20260502163726 | 47 | 200 | 3.5 | 4.3 | 0.00 | 0.01 | 0.01 | 54 | 1020.8 |
| 20260502163223 | 47 | 267 | 2.6 | 5.2 | 0.00 | 0.01 | 0.01 | 60 | 1020.6 |
| 20260502162720 | 47 | 249 | 1.7 | 2.6 | 0.00 | 0.01 | 0.01 | 55 | 1020.7 |
| 20260502162216 | 47 | 153 | 2.6 | 5.2 | 0.00 | 0.01 | 0.01 | 59 | 1020.9 |
| 20260502161713 | 47 | 103 | 3.5 | 5.2 | 0.00 | 0.01 | 0.01 | 59 | 1020.8 |
| 20260502161204 | 49 | 112 | 2.6 | 4.3 | 0.00 | 0.01 | 0.01 | 58 | 1020.8 |
| 20260502160703 | 48 | 304 | 4.3 | 5.2 | 0.00 | 0.01 | 0.01 | 56 | 1021.0 |
| 20260502160202 | 47 | 319 | 4.3 | 5.2 | 0.00 | 0.01 | 0.01 | 56 | 1021.1 |
| 20260502152115 | 48 | 38 | 1.7 | 2.6 | 0.00 | 0.01 | 0.01 | 59 | 1021.1 |
| 20260502151612 | 46 | 331 | 2.6 | 5.2 | 0.00 | 0.01 | 0.01 | 61 | 1021.0 |
| 20260502151110 | 45 | 187 | 2.6 | 4.3 | 0.00 | 0.01 | 0.01 | 63 | 1021.1 |
| 20260502150607 | 46 | 21 | 1.7 | 1.7 | 0.00 | 0.01 | 0.01 | 63 | 1020.9 |
| 20260502150103 | 47 | 95 | 1.7 | 1.7 | 0.00 | 0.01 | 0.01 | 63 | 1021.1 |
| 20260502130452 | 39 | 134 | 0.0 | 0.0 | 0.00 | 0.01 | 0.01 | 95 | 1020.8 |
| 20260502123434 | 35 | 147 | 0.0 | 0.0 | 0.00 | 0.01 | 0.01 | 99 | 1020.7 |
| 20260502122932 | 35 | 148 | 0.0 | 0.0 | 0.00 | 0.01 | 0.01 | 99 | 1020.9 |
| 20260502122427 | 35 | 65 | 1.7 | 1.7 | 0.00 | 0.01 | 0.01 | 99 | 1020.6 |
| 20260502121926 | 35 | 119 | 0.0 | 0.0 | 0.00 | 0.01 | 0.01 | 99 | 1020.3 |
| 20260502121422 | 35 | 138 | 0.0 | 0.0 | 0.00 | 0.01 | 0.01 | 99 | 1020.5 |
| 20260502120921 | 34 | 138 | 0.0 | 0.0 | 0.00 | 0.01 | 0.01 | 99 | 1020.5 |
| 20260502120416 | 34 | 132 | 0.0 | 0.0 | 0.00 | 0.01 | 0.01 | 99 | 1020.2 |
| 20260502115914 | 34 | 115 | 0.0 | 0.0 | 0.00 | 0.01 | 0.01 | 99 | 1020.3 |
| 20260502115411 | 34 | 133 | 0.0 | 0.0 | 0.00 | 0.01 | 0.01 | 99 | 1020.2 |
| 20260502114907 | 33 | 132 | 0.0 | 0.0 | 0.00 | 0.01 | 0.01 | 99 | 1020.5 |
| 20260502114404 | 33 | 139 | 0.0 | 0.0 | 0.00 | 0.01 | 0.01 | 99 | 1020.4 |
| 20260502113901 | 33 | 138 | 0.0 | 0.0 | 0.00 | 0.01 | 0.01 | 99 | 1020.6 |
| 20260502113358 | 32 | 140 | 0.0 | 0.0 | 0.00 | 0.01 | 0.01 | 99 | 1020.4 |
| 20260502112856 | 32 | 141 | 0.0 | 0.0 | 0.00 | 0.01 | 0.01 | 99 | 1020.5 |
| 20260502112354 | 32 | 142 | 0.0 | 0.0 | 0.00 | 0.01 | 0.01 | 99 | 1020.5 |
| 20260502111851 | 32 | 138 | 0.0 | 0.0 | 0.00 | 0.01 | 0.01 | 99 | 1020.3 |
| 20260502111348 | 32 | 140 | 0.0 | 0.0 | 0.00 | 0.01 | 0.01 | 99 | 1020.3 |
| 20260502110846 | 32 | 140 | 0.0 | 0.0 | 0.00 | 0.01 | 0.01 | 99 | 1020.2 |
| 20260502110344 | 31 | 139 | 0.0 | 0.0 | 0.00 | 0.01 | 0.01 | 99 | 1020.5 |
| 20260502105841 | 31 | 139 | 0.0 | 0.0 | 0.00 | 0.01 | 0.01 | 99 | 1020.2 |
| 20260502105338 | 31 | 136 | 0.0 | 0.0 | 0.00 | 0.01 | 0.01 | 99 | 1020.3 |
| 20260502104835 | 31 | 138 | 0.0 | 0.0 | 0.00 | 0.01 | 0.01 | 99 | 1019.9 |
| 20260502104333 | 31 | 139 | 0.0 | 0.0 | 0.00 | 0.01 | 0.01 | 99 | 1020.0 |
| 20260502103830 | 31 | 139 | 0.0 | 0.0 | 0.00 | 0.01 | 0.01 | 99 | 1020.1 |
| 20260502103327 | 31 | 139 | 0.0 | 0.0 | 0.00 | 0.01 | 0.01 | 99 | 1019.9 |
| 20260502102824 | 31 | 139 | 0.0 | 0.0 | 0.00 | 0.01 | 0.01 | 99 | 1020.5 |
| 20260502102321 | 31 | 139 | 0.0 | 0.0 | 0.00 | 0.01 | 0.01 | 99 | 1020.3 |
| 20260502101819 | 31 | 141 | 0.0 | 0.0 | 0.00 | 0.01 | 0.01 | 99 | 1020.2 |
| 20260502101316 | 31 | 138 | 0.0 | 0.0 | 0.00 | 0.01 | 0.01 | 99 | 1020.4 |
| 20260502100814 | 32 | 137 | 0.0 | 0.0 | 0.00 | 0.01 | 0.01 | 99 | 1020.4 |
| 20260502100313 | 32 | 138 | 0.0 | 0.0 | 0.00 | 0.01 | 0.01 | 99 | 1020.4 |
| 20260502091247 | 32 | 139 | 0.0 | 0.0 | 0.00 | 0.01 | 0.01 | 99 | 1020.4 |
| 20260502090744 | 32 | 141 | 0.0 | 0.0 | 0.00 | 0.01 | 0.01 | 99 | 1020.1 |
| 20260502090241 | 33 | 139 | 0.0 | 0.0 | 0.00 | 0.01 | 0.01 | 99 | 1020.3 |
| 20260502071142 | 34 | 139 | 0.0 | 0.0 | 0.00 | 0.00 | 0.00 | 99 | 1020.2 |
| 20260502070640 | 34 | 140 | 0.0 | 0.0 | 0.00 | 0.00 | 0.00 | 99 | 1020.0 |
| 20260502070137 | 34 | 141 | 0.0 | 0.0 | 0.00 | 0.00 | 0.00 | 99 | 1019.9 |
| 20260502065635 | 35 | 140 | 0.0 | 0.0 | 0.00 | 0.00 | 0.00 | 99 | 1020.0 |
| 20260502065133 | 35 | 140 | 0.0 | 0.0 | 0.00 | 0.00 | 0.00 | 99 | 1020.3 |
| 20260502064632 | 35 | 142 | 0.0 | 0.0 | 0.00 | 0.00 | 0.00 | 99 | 1020.2 |
| 20260502064128 | 35 | 142 | 0.0 | 0.0 | 0.00 | 0.00 | 0.00 | 99 | 1020.3 |
| 20260502063626 | 35 | 142 | 0.0 | 0.0 | 0.00 | 0.00 | 0.00 | 99 | 1020.3 |
| 20260502063124 | 35 | 140 | 0.0 | 0.0 | 0.00 | 0.00 | 0.00 | 99 | 1020.1 |
| 20260502062620 | 35 | 140 | 0.0 | 0.0 | 0.00 | 0.00 | 0.00 | 99 | 1020.2 |
| 20260502062118 | 36 | 142 | 0.0 | 0.0 | 0.00 | 0.00 | 0.00 | 99 | 1020.4 |
| 20260502061616 | 36 | 142 | 0.0 | 0.0 | 0.00 | 0.00 | 0.00 | 99 | 1019.9 |
| 20260502061114 | 36 | 139 | 0.0 | 0.0 | 0.00 | 0.00 | 0.00 | 99 | 1020.2 |
| 20260502060613 | 36 | 140 | 0.0 | 0.0 | 0.00 | 0.00 | 0.00 | 99 | 1020.3 |
| 20260502060110 | 36 | 140 | 0.0 | 0.0 | 0.00 | 0.00 | 0.00 | 99 | 1020.5 |
| 20260502055608 | 36 | 139 | 0.0 | 0.0 | 0.00 | 0.00 | 0.00 | 99 | 1020.4 |
| 20260502055106 | 36 | 139 | 0.0 | 0.0 | 0.00 | 0.00 | 0.00 | 99 | 1020.3 |
| 20260502054605 | 36 | 141 | 0.0 | 0.0 | 0.00 | 0.00 | 0.00 | 99 | 1020.5 |
| 20260502054102 | 36 | 142 | 0.0 | 0.0 | 0.00 | 0.00 | 0.00 | 99 | 1020.4 |
| 20260502053558 | 37 | 140 | 0.0 | 0.0 | 0.00 | 0.00 | 0.00 | 99 | 1020.4 |
| 20260502053056 | 37 | 141 | 0.0 | 0.0 | 0.00 | 0.00 | 0.00 | 99 | 1020.5 |
| 20260502052554 | 37 | 140 | 0.0 | 0.0 | 0.00 | 0.00 | 0.00 | 99 | 1020.4 |
| 20260502052052 | 37 | 140 | 0.0 | 0.0 | 0.00 | 0.00 | 0.00 | 99 | 1020.5 |
| 20260502051550 | 37 | 140 | 0.0 | 0.0 | 0.00 | 0.00 | 0.00 | 99 | 1020.3 |
| 20260502051048 | 37 | 140 | 0.0 | 0.0 | 0.00 | 0.00 | 0.00 | 99 | 1020.3 |
| 20260502050543 | 37 | 138 | 0.0 | 0.0 | 0.00 | 0.00 | 0.00 | 99 | 1020.2 |
| 20260502050040 | 37 | 142 | 0.0 | 0.0 | 0.00 | 0.00 | 0.00 | 99 | 1020.3 |
| 20260502045537 | 37 | 138 | 0.0 | 0.0 | 0.00 | 0.00 | 0.00 | 99 | 1020.3 |
| 20260502045035 | 37 | 136 | 0.0 | 0.0 | 0.00 | 0.00 | 0.00 | 99 | 1020.2 |
| 20260502044531 | 37 | 139 | 0.0 | 0.0 | 0.00 | 0.00 | 0.00 | 99 | 1020.3 |
| 20260502044027 | 38 | 139 | 0.0 | 0.0 | 0.00 | 0.00 | 0.00 | 99 | 1020.2 |
| 20260502043525 | 38 | 139 | 0.0 | 0.0 | 0.00 | 0.00 | 0.00 | 99 | 1020.4 |
| 20260502043021 | 37 | 139 | 0.0 | 0.0 | 0.00 | 0.00 | 0.00 | 99 | 1020.5 |
| 20260502042516 | 38 | 141 | 0.0 | 0.0 | 0.00 | 0.00 | 0.00 | 99 | 1020.4 |
| 20260502042014 | 38 | 140 | 0.0 | 0.0 | 0.00 | 0.00 | 0.00 | 99 | 1020.5 |
| 20260502041512 | 38 | 139 | 0.0 | 0.0 | 0.00 | 0.00 | 0.00 | 99 | 1020.3 |
| 20260502041008 | 38 | 139 | 0.0 | 0.0 | 0.00 | 0.00 | 0.00 | 99 | 1020.3 |
| 20260502040505 | 38 | 140 | 0.0 | 0.0 | 0.00 | 0.00 | 0.00 | 99 | 1020.3 |
| 20260502040003 | 38 | 140 | 0.0 | 0.0 | 0.00 | 0.12 | 0.12 | 99 | 1019.9 |
| 20260502035457 | 39 | 142 | 0.0 | 0.0 | 0.00 | 0.12 | 0.12 | 99 | 1020.0 |
| 20260502034955 | 38 | 137 | 0.0 | 0.0 | 0.00 | 0.12 | 0.12 | 99 | 1020.0 |
| 20260502034454 | 39 | 142 | 0.0 | 0.0 | 0.00 | 0.12 | 0.12 | 99 | 1020.1 |
| 20260502033952 | 38 | 140 | 0.0 | 0.0 | 0.00 | 0.12 | 0.12 | 99 | 1020.4 |
| 20260502033449 | 39 | 140 | 0.0 | 0.0 | 0.00 | 0.12 | 0.12 | 99 | 1020.0 |
| 20260502032946 | 39 | 141 | 0.0 | 0.0 | 0.00 | 0.12 | 0.12 | 99 | 1020.2 |
| 20260502032442 | 39 | 139 | 0.0 | 0.0 | 0.00 | 0.12 | 0.12 | 99 | 1020.4 |
| 20260502031939 | 39 | 140 | 0.0 | 0.0 | 0.00 | 0.12 | 0.12 | 99 | 1020.4 |
| 20260502031438 | 39 | 140 | 0.0 | 0.0 | 0.00 | 0.12 | 0.12 | 99 | 1019.9 |
| 20260502030936 | 39 | 141 | 0.0 | 0.0 | 0.00 | 0.12 | 0.12 | 99 | 1020.2 |
| 20260502030434 | 39 | 140 | 0.0 | 0.0 | 0.00 | 0.12 | 0.12 | 99 | 1020.4 |
| 20260502025931 | 40 | 143 | 0.0 | 0.0 | 0.00 | 0.12 | 0.12 | 99 | 1020.3 |
| 20260502025428 | 40 | 140 | 0.0 | 0.0 | 0.00 | 0.12 | 0.12 | 99 | 1020.2 |
| 20260502024926 | 40 | 141 | 0.0 | 0.0 | 0.00 | 0.12 | 0.12 | 99 | 1020.3 |
| 20260502024424 | 40 | 141 | 0.0 | 0.0 | 0.00 | 0.12 | 0.12 | 99 | 1020.4 |
| 20260502023922 | 40 | 140 | 0.0 | 0.0 | 0.00 | 0.12 | 0.12 | 99 | 1020.3 |
| 20260502023419 | 40 | 140 | 0.0 | 0.0 | 0.00 | 0.12 | 0.12 | 99 | 1020.4 |
| 20260502022916 | 40 | 140 | 0.0 | 0.0 | 0.00 | 0.12 | 0.12 | 99 | 1020.4 |
| 20260502022412 | 40 | 142 | 0.0 | 0.0 | 0.00 | 0.12 | 0.12 | 99 | 1020.1 |